Location: Chuathbaluk
(61.5726°N, 159.2454°W)
Time: 07:09:44
(UTC+00:00)

NUDT-PHONESAT - Pass Details

Date: 17 January 2021
Orbit: 479 x 498 km, 97.4° (Epoch: 08 March)

Event Time Altitude Azimuth Distance (km) Brightness Sun altitude
Rises 16:22:33 0° 23° (NNE) 2,611 ? -20.9°
Reaches altitude 10° 16:25:10 10° 43° (NE) 1,723 ? -20.6°
Maximum altitude 16:27:47 18° 88° (E) 1,290 ? -20.3°
Drops below altitude 10° 16:30:23 10° 133° (SE) 1,714 ? -20.0°
Sets 16:32:59 0° 153° (SSE) 2,592 ? -19.7°
